Location: Marsån
(66.4167°N, 22.2833°E)
Time: 07:45:07
(UTC+00:00)

Lacrosse 5 - Pass Details

Date: 24 February 2024
Orbit: 714 x 724 km, 57.0° (Epoch: 09 March)

Event Time Altitude Azimuth Distance (km) Brightness Sun altitude
Rises 16:51:11 0° 219° (SW) 3,132 5.8 -9.4°
Reaches altitude 10° 16:54:00 10° 205° (SSW) 2,211 4.8 -9.7°
Maximum altitude 16:57:52 22° 156° (SSE) 1,543 3.4 -10.0°
Enters shadow 17:01:14 12° 110° (ESE) 2,069 3.7 -10.4°
